FW9794 Weather Reports


time (UTC)temp
F
wind
direction
speed
knots
gust
knots
rain 1hr
in
rain 24hr
in
rain mn
in
humidity
%
barometer
mb
20260506050549 69 360 0.0 2.6 0.00 0.00 0.00 54 1009.8
20260506045048 69 360 0.0 2.6 0.00 0.00 0.00 54 1009.7
20260506044553 69 0 0.0 2.6 0.00 0.00 0.00 53 1009.7
20260506044048 69 0 0.0 3.5 0.00 0.00 0.00 53 1009.6
20260506043548 69 360 0.9 5.2 0.00 0.00 0.00 54 1009.7
20260506043052 68 0 0.9 7.8 0.00 0.00 0.00 54 1009.7
20260506042550 68 360 3.5 7.8 0.00 0.00 0.00 54 1009.8
20260506042051 68 360 0.9 3.5 0.00 0.00 0.00 55 1009.7
20260506041604 68 0 0.0 2.6 0.00 0.00 0.00 54 1009.5
20260506041048 68 360 0.9 2.6 0.00 0.00 0.00 54 1009.8
20260506040548 68 360 0.0 1.7 0.00 0.00 0.00 54 1009.7
20260506040059 68 0 0.0 3.5 0.00 0.00 0.00 53 1009.6
20260506035548 68 360 0.0 3.5 0.00 0.00 0.00 53 1009.5
20260506035048 68 360 1.7 5.2 0.00 0.00 0.00 52 1009.7
20260506034557 68 360 2.6 5.2 0.00 0.00 0.00 52 1009.8
20260506034048 68 360 3.5 5.2 0.00 0.00 0.00 53 1009.8
20260506033548 69 360 1.7 5.2 0.00 0.00 0.00 51 1009.8
20260506033051 69 360 3.5 5.2 0.00 0.00 0.00 51 1009.9
20260506032551 69 360 2.6 4.3 0.00 0.00 0.00 50 1010.1
20260506032048 69 0 0.9 5.2 0.00 0.00 0.00 50 1009.8
20260506031555 69 360 2.6 7.0 0.00 0.00 0.00 50 1009.9
20260506031048 69 360 3.5 7.0 0.00 0.00 0.00 49 1009.9
20260506030549 69 360 3.5 5.2 0.00 0.00 0.00 51 1010.2
20260506030053 69 360 0.9 3.5 0.00 0.00 0.00 51 1010.1
20260506025547 69 360 0.9 7.0 0.00 0.00 0.00 50 1010.2
20260506025051 69 360 2.6 7.0 0.00 0.00 0.00 50 1010.3
20260506024553 69 360 0.9 2.6 0.00 0.00 0.00 49 1010.2
20260506024048 69 360 0.0 2.6 0.00 0.00 0.00 49 1009.9
20260506023550 70 360 0.0 3.5 0.00 0.00 0.00 49 1010.1
20260506023103 69 360 0.0 3.5 0.00 0.00 0.00 49 1010.2
20260506022548 69 360 0.9 3.5 0.00 0.00 0.00 49 1010.3
20260506022048 69 0 0.9 3.5 0.00 0.00 0.00 49 1010.4
20260506021609 69 360 0.9 3.5 0.00 0.00 0.00 49 1010.2
20260506021049 69 360 0.9 2.6 0.00 0.00 0.00 49 1010.2
20260506020548 69 360 0.0 3.5 0.00 0.00 0.00 48 1010.2
20260506020052 69 360 0.0 7.8 0.00 0.00 0.00 48 1010.1
20260506015548 69 360 0.9 7.8 0.00 0.00 0.00 48 1010.0
20260506015051 69 360 0.9 7.8 0.00 0.00 0.00 48 1009.9
20260506014553 69 0 0.9 5.2 0.00 0.00 0.00 48 1009.8
20260506014050 69 360 0.9 5.2 0.00 0.00 0.00 48 1009.5
20260506013549 70 360 0.0 2.6 0.00 0.00 0.00 48 1009.4
20260506013100 70 0 0.0 2.6 0.00 0.00 0.00 48 1009.4
20260506012551 70 0 0.0 2.6 0.00 0.00 0.00 47 1009.4
20260506012050 71 360 0.0 2.6 0.00 0.00 0.00 47 1009.4
20260506011611 71 360 0.0 2.6 0.00 0.00 0.00 47 1009.5
20260506011049 71 360 0.0 2.6 0.00 0.00 0.00 47 1009.5
20260506010548 71 0 0.9 1.7 0.00 0.00 0.00 48 1009.3
20260506010058 72 360 0.0 1.7 0.00 0.00 0.00 47 1009.6
20260506005551 72 0 0.0 2.6 0.00 0.00 0.00 47 1009.7
20260506005048 72 0 0.0 2.6 0.00 0.00 0.00 46 1009.7
20260506004550 72 0 0.0 3.5 0.00 0.00 0.00 47 1009.8
20260506004048 72 360 0.9 3.5 0.00 0.00 0.00 46 1009.9
20260506003549 73 0 0.9 4.3 0.00 0.00 0.00 46 1009.9
20260506003054 73 360 0.9 4.3 0.00 0.00 0.00 45 1009.8
20260506002548 73 360 0.9 4.3 0.00 0.00 0.00 45 1009.8
20260506002049 74 0 0.9 2.6 0.00 0.00 0.00 44 1009.7
20260506001557 74 360 0.9 5.2 0.00 0.00 0.00 44 1009.8
20260506001049 74 360 0.9 7.0 0.00 0.00 0.00 43 1009.8
20260506000549 75 360 0.9 7.0 0.00 0.00 0.00 43 1009.7
20260506000055 75 360 1.7 7.0 0.00 0.00 0.00 43 1009.7
20260505235548 75 360 0.9 2.6 0.00 0.00 0.00 43 1009.8
20260505235048 76 360 0.0 3.5 0.00 0.00 0.00 43 1009.6
20260505234552 76 360 0.0 3.5 0.00 0.00 0.00 43 1009.5
20260505234049 77 360 0.9 4.3 0.00 0.00 0.00 43 1009.6
20260505233549 77 0 0.0 5.2 0.00 0.00 0.00 43 1009.5
20260505233051 77 203 0.9 7.0 0.00 0.00 0.00 42 1009.5
20260505232548 77 194 1.7 7.0 0.00 0.00 0.00 42 1009.4
20260505232051 78 360 0.9 4.3 0.00 0.00 0.00 41 1009.4
20260505231609 78 115 0.9 6.1 0.00 0.00 0.00 41 1009.4
20260505231047 78 137 1.7 6.1 0.00 0.00 0.00 41 1009.4
20260505230545 78 206 1.7 5.2 0.00 0.00 0.00 41 1009.5
20260505230052 78 360 0.9 7.0 0.00 0.00 0.00 41 1009.7
20260505225546 78 360 0.9 7.0 0.00 0.00 0.00 40 1009.6
20260505225046 78 360 1.7 7.0 0.00 0.00 0.00 41 1009.6
20260505224554 78 360 0.9 7.0 0.00 0.00 0.00 41 1009.6
20260505224047 78 360 1.7 5.2 0.00 0.00 0.00 40 1009.7
20260505223545 78 360 1.7 7.0 0.00 0.00 0.00 41 1009.7
20260505223057 78 360 1.7 7.0 0.00 0.00 0.00 42 1009.8
20260505222547 78 360 1.7 5.2 0.00 0.00 0.00 41 1009.7
20260505222047 79 360 1.7 5.2 0.00 0.00 0.00 41 1009.8
20260505221553 79 360 1.7 5.2 0.00 0.00 0.00 41 1009.8
20260505221047 78 360 1.7 4.3 0.00 0.00 0.00 41 1009.8
20260505220547 78 360 0.9 9.6 0.00 0.00 0.00 39 1009.8
20260505220054 78 360 2.6 9.6 0.00 0.00 0.00 40 1009.8
20260505215548 78 0 0.9 8.7 0.00 0.00 0.00 41 1009.8
20260505215048 78 360 1.7 10.4 0.00 0.00 0.00 39 1010.0
20260505214557 78 360 2.6 10.4 0.00 0.00 0.00 39 1009.8
20260505214048 78 360 1.7 7.0 0.00 0.00 0.00 40 1010.1
20260505213545 78 360 1.7 7.0 0.00 0.00 0.00 41 1009.9
20260505213053 78 0 1.7 7.0 0.00 0.00 0.00 41 1010.1
20260505212547 78 360 2.6 7.8 0.00 0.00 0.00 40 1009.9
20260505212048 78 0 1.7 7.8 0.00 0.00 0.00 41 1009.8
20260505211556 78 360 1.7 7.8 0.00 0.00 0.00 40 1009.8
20260505211046 78 360 1.7 7.8 0.00 0.00 0.00 40 1010.1
20260505210547 78 360 2.6 7.8 0.00 0.00 0.00 40 1010.2
20260505210051 78 360 1.7 5.2 0.00 0.00 0.00 41 1010.1
20260505205558 78 360 0.9 14.8 0.00 0.00 0.00 40 1010.2
20260505205048 79 303 2.6 14.8 0.00 0.00 0.00 40 1010.2
20260505204555 79 286 1.7 10.4 0.00 0.00 0.00 38 1010.2
20260505204048 79 259 4.3 11.3 0.00 0.00 0.00 39 1010.4
20260505203548 79 217 2.6 11.3 0.00 0.00 0.00 38 1010.5
20260505203119 79 249 3.5 9.6 0.00 0.00 0.00 38 1010.5
20260505202548 79 248 1.7 11.3 0.00 0.00 0.00 40 1010.6
20260505202046 79 224 2.6 11.3 0.00 0.00 0.00 40 1010.6
20260505201603 79 305 2.6 7.0 0.00 0.00 0.00 38 1010.7
20260505201050 79 231 1.7 8.7 0.00 0.00 0.00 37 1010.6
20260505200546 78 360 2.6 9.6 0.00 0.00 0.00 39 1010.7
20260505200059 78 360 2.6 9.6 0.00 0.00 0.00 40 1010.9
20260505195553 78 360 1.7 7.8 0.00 0.00 0.00 41 1010.8
20260505195049 77 360 0.9 10.4 0.00 0.00 0.00 41 1010.9
20260505194555 78 360 4.3 10.4 0.00 0.00 0.00 40 1011.0
20260505194049 78 360 3.5 10.4 0.00 0.00 0.00 39 1011.2
20260505193549 78 360 3.5 8.7 0.00 0.00 0.00 40 1011.4
20260505193057 79 360 2.6 7.8 0.00 0.00 0.00 39 1011.4
20260505192552 79 341 1.7 13.9 0.00 0.00 0.00 41 1011.5
20260505192049 79 269 2.6 13.9 0.00 0.00 0.00 42 1011.5
20260505191603 79 360 3.5 13.9 0.00 0.00 0.00 42 1011.5
20260505191048 79 262 0.9 12.2 0.00 0.00 0.00 44 1011.5
20260505190548 79 360 2.6 12.2 0.00 0.00 0.00 43 1011.6
20260505190053 79 230 4.3 12.2 0.00 0.00 0.00 42 1011.9
20260505185548 79 360 1.7 11.3 0.00 0.00 0.00 45 1012.0
20260505185050 79 248 4.3 14.8 0.00 0.00 0.00 45 1012.0
20260505184552 79 150 5.2 14.8 0.00 0.00 0.00 46 1012.2
20260505184052 79 200 5.2 13.0 0.00 0.00 0.00 47 1012.3
20260505183548 79 213 2.6 9.6 0.00 0.00 0.00 45 1012.4
20260505183102 79 205 2.6 10.4 0.00 0.00 0.00 45 1012.4
20260505182550 79 0 3.5 10.4 0.00 0.00 0.00 44 1012.4
20260505182049 79 260 2.6 8.7 0.00 0.00 0.00 45 1012.6
20260505181603 80 278 1.7 7.0 0.00 0.00 0.00 44 1012.6
20260505181048 79 204 1.7 12.2 0.00 0.00 0.00 44 1012.7
20260505180547 79 276 1.7 12.2 0.00 0.00 0.00 44 1012.6
20260505180104 79 257 3.5 12.2 0.00 0.00 0.00 42 1012.9
20260505175548 80 205 3.5 13.9 0.00 0.00 0.00 41 1012.9
20260505175048 80 360 3.5 13.9 0.00 0.00 0.00 41 1013.0
20260505174555 79 360 3.5 13.9 0.00 0.00 0.00 42 1013.0
20260505174047 79 360 2.6 9.6 0.00 0.00 0.00 44 1013.1
20260505173549 79 360 2.6 8.7 0.00 0.00 0.00 43 1013.1
20260505173057 78 360 3.5 12.2 0.00 0.00 0.00 45 1012.9
20260505172548 78 360 1.7 12.2 0.00 0.00 0.00 46 1013.2
20260505172047 78 360 6.1 13.9 0.00 0.00 0.00 42 1013.3
20260505171554 78 360 2.6 13.9 0.00 0.00 0.00 42 1013.4
20260505171046 78 360 5.2 13.9 0.00 0.00 0.00 42 1013.5
20260505170549 79 360 5.2 13.0 0.00 0.00 0.00 42 1013.4
20260505170109 79 234 3.5 11.3 0.00 0.00 0.00 43 1013.5
20260505165549 78 146 1.7 13.0 0.00 0.00 0.00 43 1013.7
20260505165052 78 360 5.2 13.0 0.00 0.00 0.00 44 1013.8
20260505164556 78 360 3.5 13.0 0.00 0.00 0.00 44 1014.0
20260505164048 78 360 3.5 12.2 0.00 0.00 0.00 43 1014.0
20260505163548 78 360 4.3 12.2 0.00 0.00 0.00 44 1014.0
20260505163053 78 360 2.6 9.6 0.00 0.00 0.00 43 1014.1
20260505162547 79 224 3.5 12.2 0.00 0.00 0.00 42 1014.1
20260505162049 79 250 3.5 12.2 0.00 0.00 0.00 44 1014.1
20260505161616 79 265 3.5 13.9 0.00 0.00 0.00 43 1014.1
20260505161049 78 360 4.3 13.9 0.00 0.00 0.00 45 1014.0
20260505160546 78 360 2.6 11.3 0.00 0.00 0.00 47 1013.9
20260505153103 78 263 1.7 7.8 0.00 0.00 0.00 45 1013.7
20260505152548 78 261 1.7 7.8 0.00 0.00 0.00 47 1013.8
20260505152048 77 204 1.7 7.8 0.00 0.00 0.00 49 1013.8
20260505151605 76 0 0.9 6.1 0.00 0.00 0.00 49 1013.8
20260505151051 76 194 1.7 7.0 0.00 0.00 0.00 50 1013.9
20260505150549 76 201 0.9 7.0 0.00 0.00 0.00 49 1013.9
20260505140548 66 360 0.0 2.6 0.00 0.00 0.00 70 1014.1
20260505124556 56 0 0.0 0.0 0.00 0.00 0.00 88 1013.8
20260505124049 55 0 0.0 0.9 0.00 0.00 0.00 90 1013.8
20260505123549 55 0 0.0 0.9 0.00 0.00 0.00 90 1013.6
20260505123105 54 0 0.0 0.9 0.00 0.00 0.00 91 1013.6
20260505122549 54 0 0.0 1.7 0.00 0.00 0.00 92 1013.5
20260505122050 53 360 0.0 1.7 0.00 0.00 0.00 92 1013.5
20260505121613 52 360 0.9 1.7 0.00 0.00 0.00 91 1013.5
20260505121049 51 0 0.0 0.9 0.00 0.00 0.00 91 1013.4
20260505120545 51 0 0.0 0.9 0.00 0.00 0.00 92 1013.6
20260505120056 50 0 0.0 0.9 0.00 0.00 0.00 93 1013.6
20260505115551 50 0 0.0 0.9 0.00 0.00 0.00 92 1013.5
20260505115050 49 0 0.0 0.9 0.00 0.00 0.00 93 1013.5
20260505114557 49 0 0.0 1.7 0.00 0.00 0.00 92 1013.3
20260505114046 49 0 0.0 1.7 0.00 0.00 0.00 92 1013.3
20260505113552 48 0 0.0 2.6 0.00 0.00 0.00 93 1013.4
20260505113050 48 0 0.0 2.6 0.00 0.00 0.00 93 1013.2
20260505112547 48 360 0.9 1.7 0.00 0.00 0.00 93 1013.3
20260505112047 48 0 0.0 1.7 0.00 0.00 0.00 93 1013.0
20260505111552 48 350 0.0 1.7 0.00 0.00 0.00 92 1013.0
20260505111048 48 350 0.0 0.9 0.00 0.00 0.00 92 1012.9
20260505110548 48 0 0.0 0.9 0.00 0.00 0.00 91 1012.7
20260505102048 48 0 0.0 0.0 0.00 0.00 0.00 90 1012.8
20260505101556 48 0 0.0 0.0 0.00 0.00 0.00 90 1012.8
20260505101048 49 0 0.0 0.0 0.00 0.00 0.00 88 1012.7
20260505100547 49 0 0.0 0.0 0.00 0.00 0.00 88 1012.7
20260505100055 49 0 0.0 0.0 0.00 0.00 0.00 88 1012.7
20260505095549 49 0 0.0 0.0 0.00 0.00 0.00 88 1012.6
20260505095046 50 0 0.0 0.0 0.00 0.00 0.00 89 1012.8
20260505094552 50 0 0.0 0.0 0.00 0.00 0.00 88 1012.7
20260505094048 50 0 0.0 0.9 0.00 0.00 0.00 88 1012.7
20260505093548 50 0 0.0 0.9 0.00 0.00 0.00 88 1012.8
20260505093050 50 0 0.0 0.9 0.00 0.00 0.00 88 1012.8
20260505092547 50 0 0.0 0.0 0.00 0.00 0.00 88 1012.8
20260505092048 50 0 0.0 0.0 0.00 0.00 0.00 87 1012.8
20260505091550 50 0 0.0 0.0 0.00 0.00 0.00 87 1012.8
20260505091048 50 0 0.0 0.9 0.00 0.00 0.00 87 1012.7
20260505090545 50 0 0.0 1.7 0.00 0.00 0.00 87 1012.7
20260505090100 50 0 0.0 1.7 0.00 0.00 0.00 87 1012.6
20260505085546 50 360 0.0 1.7 0.00 0.00 0.00 88 1012.6
20260505085046 50 0 0.9 1.7 0.00 0.00 0.00 89 1012.5
20260505084554 50 360 0.0 1.7 0.00 0.00 0.00 89 1012.5
20260505084047 50 0 0.0 1.7 0.00 0.00 0.00 90 1012.5
20260505083549 50 0 0.0 1.7 0.00 0.00 0.00 88 1012.4
20260505083056 50 0 0.0 1.7 0.00 0.00 0.00 88 1012.3
20260505082546 50 360 0.0 1.7 0.00 0.00 0.00 88 1012.3
20260505082049 51 360 0.0 0.9 0.00 0.00 0.00 86 1012.2
20260505081557 51 360 0.0 0.9 0.00 0.00 0.00 85 1012.2
20260505081046 51 0 0.0 1.7 0.00 0.00 0.00 85 1012.2
20260505080545 51 360 0.0 1.7 0.00 0.00 0.00 86 1012.2
20260505080054 51 0 0.9 1.7 0.00 0.00 0.00 86 1012.2
20260505075549 51 360 0.0 0.9 0.00 0.00 0.00 85 1012.2
20260505075049 51 0 0.0 0.9 0.00 0.00 0.00 84 1012.1
20260505074552 51 0 0.0 0.9 0.00 0.00 0.00 84 1012.1
20260505074048 51 0 0.0 0.9 0.00 0.00 0.00 84 1012.1
20260505073550 51 0 0.0 0.9 0.00 0.00 0.00 84 1012.2
20260505073053 51 0 0.0 0.9 0.00 0.00 0.00 85 1012.2
20260505072551 51 0 0.0 0.9 0.00 0.00 0.00 85 1012.2
20260505072048 52 0 0.0 1.7 0.00 0.00 0.00 85 1012.3
20260505071554 52 0 0.0 1.7 0.00 0.00 0.00 86 1012.3
20260505071048 52 360 0.0 1.7 0.00 0.00 0.00 86 1012.4
20260505070549 52 0 0.0 1.7 0.00 0.00 0.00 86 1012.3
20260505070051 52 0 0.0 1.7 0.00 0.00 0.00 86 1012.4
20260505065549 52 360 0.0 1.7 0.00 0.00 0.00 86 1012.5
20260505065046 52 0 0.0 0.9 0.00 0.00 0.00 84 1012.5
20260505064554 52 0 0.0 0.9 0.00 0.00 0.00 84 1012.5
20260505064046 52 0 0.0 0.0 0.00 0.00 0.00 85 1012.4
20260505063546 52 0 0.0 0.0 0.00 0.00 0.00 85 1012.4
20260505063052 52 0 0.0 0.0 0.00 0.00 0.00 85 1012.4
20260505062550 53 0 0.0 0.0 0.00 0.00 0.00 84 1012.4
20260505062048 53 0 0.0 2.6 0.00 0.00 0.00 83 1012.3
20260505061552 53 0 0.0 2.6 0.00 0.00 0.00 84 1012.3
20260505061049 53 360 0.9 2.6 0.00 0.00 0.00 84 1012.2
20260505060548 53 360 0.0 2.6 0.00 0.00 0.00 84 1012.3
20260505060056 53 360 0.9 2.6 0.00 0.00 0.00 83 1012.3
20260505055549 53 360 0.0 0.9 0.00 0.00 0.00 82 1012.2
20260505055049 54 0 0.0 0.9 0.00 0.00 0.00 81 1012.2
20260505054554 54 0 0.0 1.7 0.00 0.00 0.00 82 1012.1
20260505054048 54 0 0.0 1.7 0.00 0.00 0.00 81 1012.2
20260505053549 54 360 0.0 1.7 0.00 0.00 0.00 81 1012.2
20260505053105 54 0 0.0 2.6 0.00 0.00 0.00 82 1012.2
20260505052545 54 0 0.9 2.6 0.00 0.00 0.00 82 1012.1
20260505052046 54 0 0.0 1.7 0.00 0.00 0.00 82 1012.0
20260505051553 54 360 0.0 1.7 0.00 0.00 0.00 80 1011.9
20260505051050 55 360 0.0 1.7 0.00 0.00 0.00 81 1011.9